SCP
0 0 0 0 0 0 0 0 0 0 0 0 0 0 0 0 0 0 0 0 0 0 0 0 0 0 1 1 1 1 1 1 1 1 1 1 0 0 0 0 0 0 0 0
0 0 0 0 0 0 0 0 0 0 0 0 0 0 0 0 0 0 0 0 0 0 0 0 0 0 1 1 1 1 1 1 1 1 1 1 0 0 0 0 0 0 0 0
0 0 0 0 0 0 0 0 0 0 0 0 0 0 0 0 0 0 0 0 0 0 0 0 0 1 1 1 1 1 1 1 1 1 1 1 1 0 0 0 0 0 0 0
0 0 0 0 0 0 0 0 0 0 0 0 0 0 0 0 0 0 0 0 0 0 0 0 0 1 1 1 1 1 1 1 1 1 1 1 1 1 1 1 1 0 0 0
0 0 0 0 0 0 0 0 0 0 0 0 0 0 0 0 0 0 0 0 0 0 0 0 0 0 1 1 1 1 1 1 1 1 1 1 1 1 1 1 1 1 1 1
0 0 0 0 0 0 0 0 0 0 0 0 0 0 0 0 0 0 0 0 0 0 0 0 0 0 1 1 1 1 1 1 1 1 1 1 1 1 1 1 1 1 1 1
0 0 0 0 0 0 0 0 0 0 0 0 0 0 0 0 0 0 0 0 0 0 0 0 0 0 0 1 1 1 1 1 1 1 1 1 1 1 1 1 1 1 1 1
0 0 0 0 0 0 0 0 0 0 0 0 0 0 0 0 0 0 0 0 0 0 0 0 0 0 0 1 1 1 1 1 1 1 1 1 1 1 1 0 0 0 1 1
0 0 0 0 0 0 0 0 0 0 0 0 0 0 0 0 0 0 0 0 0 0 0 0 0 0 0 1 1 1 1 1 1 1 1 1 0 0 0 0 0 0 0 0
0 0 0 0 0 0 0 0 0 0 0 0 0 0 0 0 0 0 0 0 0 0 0 0 0 0 0 0 0 0 0 1 1 1 1 1 0 0 0 0 0 0 0 0
0 0 0 0 0 0 0 0 0 0 0 0 0 0 0 0 0 0 0 0 0 0 0 0 0 0 0 0 0 0 0 0 0 0 1 1 0 0 0 0 0 0 0 0
0 0 0 0 0 0 0 0 0 0 0 0 0 0 0 0 0 0 0 0 0 0 0 0 0 0 0 0 0 0 0 0 0 0 0 0 0 0 0 0 0 0 0 0
0 0 0 0 0 0 0 0 0 0 0 0 0 0 0 0 0 0 0 0 0 0 0 0 0 0 0 0 0 0 0 0 0 0 0 0 0 0 0 0 0 0 0 0
0 0 0 0 0 0 0 0 0 0 0 0 0 0 0 0 0 0 0 0 0 0 0 0 0 0 0 0 0 0 0 0 0 0 0 0 0 0 0 0 0 0 0 0
0 0 0 0 0 0 0 0 0 0 0 0 0 0 0 0 0 0 0 0 0 0 0 0 0 0 0 0 0 0 0 1 1 1 0 0 0 0 0 0 0 0 0 0
0 0 0 0 0 0 0 0 0 0 0 0 0 0 0 0 0 0 0 0 0 0 0 0 0 0 0 0 0 0 0 1 1 1 0 0 0 0 0 0 0 0 0 0
0 0 0 0 0 0 0 0 0 0 0 0 0 0 0 0 0 0 0 0 0 0 0 0 0 0 0 0 0 0 0 0 0 0 0 0 0 0 0 0 0 0 0 0
0 0 0 0 0 0 0 0 0 0 0 0 0 0 0 0 0 0 0 0 0 0 0 0 0 0 0 0 0 0 0 0 0 0 0 0 0 0 0 0 0 0 0 0
0 0 0 0 0 0 0 0 0 0 0 0 0 0 0 0 0 0 0 0 0 0 0 0 0 0 0 0 0 0 0 0 0 0 0 0 0 0 0 0 0 0 0 0
0 0 0 0 0 0 0 0 0 0 0 0 0 0 0 0 0 0 0 0 0 0 0 0 0 0 0 0 0 0 0 0 0 0 0 0 0 0 0 0 0 0 0 0
0 0 0 0 0 0 0 0 0 0 0 0 0 0 0 0 0 0 0 0 0 0 0 0 0 0 0 0 0 0 0 0 0 0 0 0 0 0 0 0 0 0 0 0
0 0 0 0 0 0 0 0 0 0 0 0 0 0 0 0 0 0 0 0 0 0 0 0 0 0 0 0 0 0 0 0 0 0 0 0 0 0 0 0 0 0 0 0
0 0 0 0 0 0 0 0 0 0 0 0 0 0 0 0 0 0 0 0 0 0 0 0 0 0 0 0 0 0 0 0 0 0 0 0 0 0 0 0 0 0 0 0
0 0 0 0 0 0 0 0 0 0 0 0 0 0 0 0 0 0 0 0 0 0 0 0 0 0 0 0 0 0 0 0 0 0 0 0 0 0 0 0 0 0 0 0
0 0 0 0 0 0 0 0 0 0 0 0 0 0 0 0 0 0 0 0 0 0 0 0 0 0 0 0 0 0 0 0 0 0 0 0 0 0 0 0 0 0 0 0
0 0 0 0 0 0 0 0 0 0 0 0 0 0 0 0 0 0 0 0 0 0 0 0 0 0 0 0 0 0 0 0 0 0 0 0 0 0 0 0 0 0 0 0
Wind_Speed
4 5 2 1 1 2 1 1 1 2 3 3 2 5 5 4 3 3 3 3 3 4 4 3 2 2 1 1 1 2 2 2 2 1 1 2 2 2 1 2 2 2 2 2
5 3 2 1 2 2 2 1 1 3 4 3 3 6 4 3 3 3 3 4 4 4 4 3 2 1 1 1 2 2 2 2 2 2 2 2 2 2 2 1 2 2 2 2
3 2 2 3 3 2 1 2 2 2 5 3 2 5 3 3 3 3 3 3 3 3 3 3 2 1 1 1 2 2 3 3 3 2 1 1 1 0 0 1 2 2 2 2
2 3 3 3 2 1 1 1 1 1 1 3 1 3 5 3 3 4 4 3 3 3 3 3 2 2 1 1 1 1 1 2 2 2 2 2 2 2 3 2 2 2 2 2
1 2 3 2 2 0 2 2 1 2 1 2 1 2 7 3 3 5 4 4 3 3 2 2 2 2 2 2 1 1 0 1 1 2 3 3 3 3 1 1 1 2 2 2
1 2 0 1 2 1 1 2 3 2 2 2 4 4 6 3 4 4 4 4 4 3 3 3 3 2 2 3 2 2 1 1 1 1 2 3 3 2 1 1 2 2 2 2
4 4 3 2 2 3 3 3 3 3 2 5 2 3 7 5 3 2 2 4 4 4 4 4 5 5 4 4 4 3 2 2 2 1 2 3 3 3 3 3 2 2 2 2
2 3 3 2 0 1 0 3 3 3 3 4 2 5 5 3 2 2 2 2 3 4 4 4 4 4 4 4 4 4 3 3 2 2 2 2 2 2 2 2 2 2 2 3
1 3 3 2 1 1 1 1 1 2 1 2 4 4 5 3 4 4 4 5 4 4 4 4 4 3 3 3 4 3 3 3 3 3 2 2 2 2 2 2 2 2 2 2
2 1 4 4 2 3 1 2 3 3 2 3 5 4 4 3 4 4 4 4 4 4 4 4 4 4 3 3 3 4 3 3 3 3 2 2 2 2 2 1 1 2 2 2
1 1 3 3 1 1 1 1 2 2 2 2 4 7 3 3 3 3 3 4 4 4 4 4 4 4 4 4 4 4 4 4 4 4 4 3 3 3 2 1 2 2 2 2
1 2 1 4 3 2 1 2 3 2 3 3 3 8 3 1 2 3 4 4 4 4 4 4 4 4 4 4 4 4 4 4 4 4 4 4 3 3 3 2 2 2 2 3
2 4 2 5 4 3 1 1 1 1 2 3 4 8 3 3 4 3 4 4 5 5 5 4 4 4 4 4 4 4 4 4 4 4 4 4 4 4 4 3 3 3 3 3
4 3 4 6 4 2 4 4 3 3 3 5 9 9 7 6 6 6 5 4 4 5 5 4 4 4 4 4 4 4 4 4 5 4 4 4 4 4 4 4 4 3 3 3
4 2 3 5 5 4 6 8 7 8 8 8 9 8 9 7 6 5 4 3 4 4 4 4 4 4 4 4 4 4 4 5 4 4 4 4 4 4 4 4 4 4 4 3
2 2 0 4 3 4 7 10 10 10 9 11 10 12 8 5 3 3 3 3 4 4 4 4 4 4 4 4 4 4 4 4 4 4 4 4 4 5 5 4 4 4 4 4
2 4 2 4 5 5 8 10 10 7 7 7 11 11 4 4 5 5 4 3 4 4 4 4 4 4 4 4 3 3 4 4 4 5 5 5 5 5 5 5 5 5 5 4
5 4 3 0 4 6 9 2 5 6 8 8 8 7 5 6 5 4 3 3 4 4 4 4 4 4 4 3 3 3 4 4 4 4 5 6 6 5 5 5 5 5 4 4
5 6 4 2 2 10 10 5 4 5 7 7 9 8 6 4 2 3 3 2 3 3 4 3 3 3 3 4 4 3 4 4 4 5 5 6 5 5 6 5 5 5 4 4
4 4 5 4 3 9 8 2 2 2 7 5 6 7 5 1 2 5 3 2 2 2 2 3 3 3 4 4 3 3 4 4 4 5 6 5 5 5 5 5 5 4 4 4
5 4 5 6 7 12 9 3 3 3 8 3 5 6 5 5 6 4 2 2 2 3 3 2 2 3 3 4 3 3 3 4 5 5 5 5 5 4 4 4 4 4 4 4
10 8 8 7 7 13 6 5 8 9 3 2 3 4 5 5 4 3 3 3 2 3 3 3 2 3 4 3 3 3 4 4 4 4 4 5 5 4 3 3 4 4 3 3
10 12 9 12 12 6 6 9 7 4 4 4 4 4 4 4 4 4 4 4 3 3 3 3 2 3 4 3 3 3 4 4 4 4 4 4 4 4 4 3 3 3 3 2
6 5 5 7 11 8 7 7 6 5 6 5 5 5 5 5 5 5 4 4 4 4 3 3 3 4 4 4 3 3 4 4 3 4 4 4 4 4 4 3 2 2 2 2
9 8 6 8 8 5 8 10 9 7 5 5 5 5 6 6 6 6 5 5 4 4 3 2 3 4 4 4 4 4 4 3 3 3 4 4 3 3 3 3 3 3 3 3
9 11 11 11 9 8 8 7 7 7 8 7 6 6 5 6 7 6 5 5 4 4 3 3 3 3 4 4 4 4 3 2 2 3 3 3 3 3 3 3 4 4 4 6
Wind_Direction
23 59 56 264 192 174 139 106 317 300 325 354 286 282 297 302 322 315 308 309 300 288 287 294 278 271 233 181 182 188 186 196 171 176 194 209 225 227 227 224 223 216 214 212
44 24 317 333 42 77 113 126 297 309 329 328 293 289 292 278 261 253 262 277 283 298 318 320 315 309 273 213 206 198 198 197 196 207 205 208 215 228 230 229 231 229 227 227
92 309 337 44 38 58 5 199 225 281 334 341 332 312 288 280 273 293 295 284 291 284 289 301 312 294 311 310 242 225 210 200 203 205 147 70 88 23 268 275 248 243 232 234
48 337 20 48 19 63 284 268 212 240 347 296 299 288 285 271 292 291 292 304 304 305 305 311 323 328 314 273 271 255 239 213 201 178 157 163 186 223 239 256 254 263 238 239
6 350 29 28 322 99 229 270 252 255 225 298 271 232 279 287 287 284 278 280 288 297 310 324 325 310 314 319 314 302 346 296 230 188 188 192 212 230 250 272 262 261 259 250
325 328 30 293 311 272 260 22 23 35 81 260 231 204 271 245 242 272 290 301 310 328 343 346 344 349 356 358 3 353 7 339 327 235 207 203 216 224 245 268 266 273 275 265
356 345 346 4 11 4 51 72 33 3 350 252 249 209 252 258 266 252 284 317 339 354 8 6 3 2 1 3 1 355 3 342 324 291 258 236 228 222 228 240 250 273 282 280
40 323 324 352 13 230 288 135 154 196 236 287 297 232 256 290 320 18 22 3 2 357 360 2 360 4 4 4 4 8 358 346 336 322 293 272 249 237 247 244 246 249 260 264
125 279 310 316 314 136 101 158 164 129 11 292 275 284 298 333 7 17 10 5 354 345 349 350 352 357 1 1 3 359 354 348 338 327 320 316 301 274 272 267 252 264 281 295
137 256 301 316 11 9 137 133 89 109 150 268 286 269 263 295 311 333 342 334 327 330 339 343 347 347 351 356 358 358 1 353 344 342 332 331 319 309 298 292 304 303 301 300
101 138 313 350 352 271 21 73 101 122 169 185 275 273 241 229 255 288 299 313 314 317 327 330 335 337 344 357 4 5 0 357 357 354 346 341 336 336 335 331 318 310 310 306
116 110 282 278 284 301 196 187 150 166 238 220 244 270 302 255 301 319 315 323 328 327 329 330 333 342 347 352 353 356 359 359 351 348 354 350 349 352 351 344 338 335 330 327
124 107 37 339 331 346 326 257 191 168 169 203 219 265 317 343 332 328 323 325 330 332 332 338 344 347 344 344 346 351 356 350 345 352 359 359 358 355 349 340 338 340 337 337
103 129 176 205 237 244 274 271 242 182 206 233 235 259 291 307 312 321 325 326 327 326 332 343 344 340 339 344 345 346 350 348 349 356 359 0 353 348 343 339 341 341 341 339
103 165 228 258 273 266 253 258 247 227 222 225 248 253 269 278 286 295 304 321 329 331 337 337 334 332 335 341 341 345 345 348 352 358 356 348 343 344 348 351 351 350 354 348
100 144 38 297 300 292 275 260 247 242 238 243 259 268 265 274 280 285 286 299 306 307 313 321 327 332 329 326 325 333 341 346 353 355 346 342 347 352 352 352 353 354 354 352
145 129 116 271 315 350 278 239 219 226 227 219 239 253 271 281 274 261 265 284 295 297 304 311 316 319 317 320 329 335 337 343 354 356 352 351 352 353 348 347 353 352 346 352
152 136 143 271 19 254 247 252 208 224 244 230 243 259 251 248 257 253 242 257 283 292 300 307 311 316 320 327 340 342 348 350 351 355 354 353 352 347 342 347 352 346 344 348
163 149 141 147 246 277 288 261 196 209 261 233 238 258 264 272 301 287 274 256 256 275 286 294 301 310 323 332 336 349 353 350 354 352 347 345 345 341 341 345 345 339 340 344
153 140 139 155 202 245 250 241 184 127 272 241 223 243 244 196 269 270 281 289 288 297 301 306 315 326 330 329 338 353 346 347 344 338 332 335 338 339 339 337 334 335 340 341
167 180 190 196 228 259 251 234 125 184 252 244 211 228 221 213 229 245 259 282 290 302 305 308 315 321 320 327 344 344 338 332 328 329 327 334 338 335 332 334 336 339 343 344
179 181 193 176 212 250 220 157 196 223 238 226 220 221 219 234 248 248 250 267 284 298 305 312 315 314 324 335 339 328 324 324 329 329 333 334 334 331 337 341 339 341 344 345
201 193 187 195 216 239 190 205 222 209 221 228 219 229 217 228 243 247 252 263 275 277 290 306 303 307 322 337 338 316 316 327 328 330 331 329 334 337 338 337 335 336 339 340
233 194 196 238 253 248 240 240 242 225 226 236 232 230 217 228 241 246 250 263 273 279 284 294 302 302 311 328 335 314 317 329 325 322 322 329 337 338 337 333 328 322 320 325
205 181 205 243 260 276 258 237 236 238 239 242 243 233 229 230 243 245 249 254 260 273 283 283 278 285 297 315 320 322 328 329 320 317 319 326 331 325 325 326 317 310 299 296
188 184 190 221 213 206 235 233 222 223 234 234 234 246 244 229 238 244 248 251 256 263 273 275 277 280 291 303 307 316 324 313 306 314 319 318 318 318 320 322 327 333 324 328